{"data":{"norad_id":69310,"epoch":"2026-09-18T20:39:59.390784Z","epoch_age_seconds":170418,"freshness":"FRESH","line1":"1 69310U 26119Q   26261.86110406  .00016355  00000+0  50766-3 0  9997","line2":"2 69310  97.2846 286.6403 0002366  61.3537 298.7944 15.33453067 18412","mean_motion":15.33453067,"eccentricity":0.0002366,"inclination_deg":97.2846,"raan_deg":286.6403,"arg_perigee_deg":61.3537,"mean_anomaly_deg":298.7944,"bstar":0.00050766,"rev_number":1841,"period_min":93.905710646702,"perigee_km":463.89996381647,"apogee_km":467.13838191747,"semimajor_km":6843.656172867,"source":"CELESTRAK","updated_at":"2026-09-20T09:00:44.156743Z"}}